Flag for Germany Weather past 2 weeks in Fürth, Bavaria, Germany

Now
46 °F

Rain. Passing clouds.


Feels Like: 44 °F
Forecast: 33 / 58 °F
Wind: 5 mph from North

Location: Nuernberg

Current Time: Apr 28, 2015 at 3:54:14 AM

Latest Report: Apr 28, 2015 at 3:20 AM


Visibility: 4 mi

Pressure: 29.65 "Hg

Humidity: 93%

Dew point: 45 °F

Location of FürthLocation

Historic Weather in Fürth — Graph

°F

Fürth temperature yesterday

Maximum temperature yesterday: 72 °F (at 2:50 PM)
Minimum temperature yesterday: 48 °F (at 5:50 AM)
Average temperature yesterday: 60 °F

Past Weeks' High & Low Weather Summary

 TemperatureHumidityPressure
High75 °F (Apr 15, 4:50 PM)100% (Apr 26, 4:50 AM)30.42 "Hg (Apr 26, 4:50 AM)
Low28 °F (Apr 19, 4:50 AM)19% (Apr 15, 5:20 PM)29.53 "Hg (Apr 27, 3:20 PM)
Average52 °F60%30.07 "Hg
* Reported Apr 13 2:20 AM — Apr 28 2:50 AM, Fürth, Weather by CustomWeather, © 2015

Note: Actual official high and low records may vary slightly from our data, if they occured in-between our weather recording intervals... More about our weather records

Advertising

Fürth weather history for previous 24 hours

 ConditionsComfort  
Time TempWeatherWind HumidityBarometerVisibility
2:50 AM
Tue, Apr 28
46 °FLight rain. Partly cloudy.5 mph93%29.65 "Hg3 mi
2:20 AM48 °FRain. Partly cloudy.3 mph94%29.65 "Hg3 mi
1:50 AM48 °FRain. Partly cloudy.3 mph94%29.65 "Hg4 mi
1:20 AM48 °FLight rain. Partly cloudy.3 mph94%29.65 "Hg5 mi
12:50 AM48 °FRain. Passing clouds.5 mph94%29.62 "Hg4 mi
12:20 AM50 °FLight rain. Passing clouds.5 mph94%29.62 "Hg4 mi
11:50 PM
Mon, Apr 27
50 °FLight rain. Passing clouds.3 mph94%29.62 "Hg5 mi
11:20 PM52 °FLight rain. Passing clouds.6 mph88%29.59 "HgN/A
10:50 PM54 °FPassing clouds.5 mph82%29.59 "HgN/A
10:20 PM54 °FPassing clouds.6 mph82%29.59 "HgN/A
9:50 PM55 °FPassing clouds.6 mph82%29.59 "HgN/A
9:20 PM55 °FPartly sunny.8 mph82%29.56 "HgN/A
8:50 PM57 °FPartly sunny.7 mph77%29.56 "HgN/A
8:20 PM61 °FBroken clouds.7 mph72%29.56 "HgN/A
7:50 PM63 °FBroken clouds.7 mph68%29.53 "HgN/A
7:20 PM64 °FBroken clouds.9 mph60%29.53 "HgN/A
6:50 PM66 °FBroken clouds.7 mph56%29.53 "HgN/A
6:20 PM68 °FBroken clouds.8 mph53%29.53 "HgN/A
5:50 PM68 °FBroken clouds.9 mph53%29.53 "HgN/A
5:20 PM68 °FBroken clouds.10 mph56%29.53 "HgN/A
4:50 PM68 °FBroken clouds.12 mph56%29.53 "HgN/A
4:20 PM68 °FBroken clouds.9 mph60%29.53 "HgN/A
3:50 PM70 °FBroken clouds.9 mph50%29.53 "HgN/A
3:20 PM70 °FBroken clouds.7 mph50%29.53 "HgN/A
2:50 PM72 °FBroken clouds.9 mph50%29.56 "HgN/A
2:20 PM70 °FBroken clouds.7 mph46%29.56 "HgN/A
1:50 PM70 °FBroken clouds.8 mph46%29.56 "HgN/A
1:20 PM68 °FBroken clouds.9 mph49%29.56 "HgN/A
12:50 PM68 °FBroken clouds.9 mph53%29.59 "HgN/A
12:20 PM68 °FPartly sunny.8 mph49%29.59 "HgN/A
11:50 AM66 °FBroken clouds.9 mph52%29.59 "HgN/A
11:20 AM66 °FPartly sunny.10 mph52%29.59 "HgN/A
10:50 AM66 °FPartly sunny.8 mph52%29.59 "HgN/A
10:20 AM64 °FPartly sunny.2 mph56%29.59 "HgN/A
9:50 AM64 °FPartly sunny.2 mph60%29.59 "HgN/A
9:20 AM63 °FSunny.3 mph64%29.59 "Hg10 mi
8:50 AM61 °FSunny.2 mph68%29.59 "Hg10 mi
8:20 AM59 °FPassing clouds.3 mph72%29.59 "HgN/A
7:50 AM55 °FSunny.1 mph82%29.59 "Hg10 mi
7:20 AM54 °FSunny.1 mph88%29.62 "Hg10 mi
6:50 AM52 °FPassing clouds.3 mph88%29.59 "HgN/A
6:20 AM48 °FClear.2 mph87%29.59 "Hg10 mi
5:50 AM48 °FFog.2 mph87%29.59 "HgN/A
5:20 AM50 °FClear.2 mph88%29.59 "Hg10 mi
4:50 AM52 °FClear.1 mph82%29.59 "Hg10 mi
4:20 AM50 °FClear.2 mph88%29.59 "Hg10 mi
3:50 AM54 °FClear.2 mph82%29.62 "Hg10 mi
3:20 AM54 °FClear.1 mph82%29.65 "Hg10 mi
Weather by CustomWeather, © 2015

See weather overviewHow to use our weather pages